EN

Hourly Weather Godzieszowek

Today, 16 May, Sunday

Time Temperature Precipitation Wind Pressure Humidity
00:00 +9°C° 0.1 mm 2 mps 732 mmHg 93%
01:00 +10°C° 0 mm 1 mps 732 mmHg 92%
02:00 +10°C° 0 mm 1 mps 732 mmHg 92%
03:00 +9°C° 0 mm 2 mps 732 mmHg 92%
04:00 +8°C° 0 mm 2 mps 731 mmHg 93%
05:00 +9°C° 0 mm 2 mps 732 mmHg 90%
06:00 +10°C° 0 mm 2 mps 732 mmHg 88%
07:00 +11°C° 0 mm 3 mps 732 mmHg 86%
08:00 +12°C° 0.2 mm 3 mps 732 mmHg 82%
09:00 +12°C° 0.2 mm 3 mps 733 mmHg 78%
10:00 +13°C° 0.2 mm 3 mps 733 mmHg 75%
11:00 +14°C° 0.2 mm 3 mps 733 mmHg 70%
12:00 +14°C° 0.2 mm 4 mps 733 mmHg 65%
13:00 +15°C° 0.2 mm 4 mps 733 mmHg 60%
14:00 +15°C° 0 mm 4 mps 732 mmHg 60%
15:00 +15°C° 0 mm 4 mps 732 mmHg 59%
16:00 +15°C° 0 mm 4 mps 732 mmHg 59%
17:00 +14°C° 0 mm 3 mps 732 mmHg 65%
18:00 +14°C° 0 mm 2 mps 732 mmHg 71%
19:00 +13°C° 0 mm 2 mps 732 mmHg 77%
20:00 +12°C° 0 mm 2 mps 732 mmHg 82%
21:00 +10°C° 0 mm 2 mps 732 mmHg 86%
22:00 +9°C° 0 mm 2 mps 732 mmHg 90%
23:00 +8°C° 0 mm 2 mps 732 mmHg 89%

Tomorrow, 17 May, Monday

Time Temperature Precipitation Wind Pressure Humidity
00:00 +8°C° 0 mm 2 mps 732 mmHg 89%
01:00 +8°C° 0 mm 2 mps 732 mmHg 89%
02:00 +8°C° 0 mm 2 mps 732 mmHg 89%
03:00 +8°C° 0 mm 2 mps 732 mmHg 89%
04:00 +9°C° 0 mm 2 mps 732 mmHg 89%
05:00 +9°C° 0.1 mm 2 mps 732 mmHg 89%
06:00 +10°C° 0.1 mm 2 mps 732 mmHg 88%
07:00 +12°C° 0.1 mm 2 mps 732 mmHg 88%
08:00 +12°C° 0.2 mm 1 mps 732 mmHg 88%
09:00 +12°C° 0.2 mm 1 mps 732 mmHg 88%
10:00 +12°C° 0.2 mm 1 mps 732 mmHg 87%
11:00 +13°C° 0.3 mm 1 mps 732 mmHg 86%
12:00 +13°C° 0.3 mm 1 mps 732 mmHg 84%
13:00 +13°C° 0.3 mm 1 mps 733 mmHg 83%
14:00 +13°C° 0.6 mm 1 mps 733 mmHg 84%
15:00 +13°C° 0.6 mm 2 mps 733 mmHg 85%
16:00 +13°C° 0.6 mm 2 mps 733 mmHg 86%
17:00 +12°C° 0.4 mm 3 mps 733 mmHg 87%
18:00 +11°C° 0.4 mm 3 mps 733 mmHg 89%
19:00 +11°C° 0.4 mm 4 mps 733 mmHg 90%
20:00 +10°C° 0 mm 4 mps 734 mmHg 90%
21:00 +10°C° 0 mm 4 mps 734 mmHg 90%
22:00 +8°C° 0 mm 5 mps 734 mmHg 90%
23:00 +8°C° 0 mm 4 mps 734 mmHg 90%

Day after tomorrow, 18 May, Tuesday

Time Temperature Precipitation Wind Pressure Humidity
00:00 +7°C° 0 mm 4 mps 735 mmHg 90%
01:00 +7°C° 0 mm 4 mps 735 mmHg 90%
02:00 +6°C° 0 mm 4 mps 735 mmHg 91%
03:00 +7°C° 0 mm 3 mps 735 mmHg 92%
04:00 +5°C° 0 mm 3 mps 735 mmHg 93%
05:00 +7°C° 0 mm 3 mps 735 mmHg 90%
06:00 +7°C° 0 mm 4 mps 735 mmHg 88%
07:00 +10°C° 0 mm 4 mps 736 mmHg 85%
08:00 +9°C° 0 mm 5 mps 736 mmHg 82%
09:00 +10°C° 0 mm 5 mps 736 mmHg 78%
10:00 +12°C° 0 mm 5 mps 736 mmHg 75%
11:00 +13°C° 0.1 mm 6 mps 736 mmHg 71%
12:00 +14°C° 0.1 mm 6 mps 736 mmHg 68%
13:00 +15°C° 0.1 mm 6 mps 736 mmHg 64%
14:00 +14°C° 0.3 mm 6 mps 736 mmHg 69%
15:00 +14°C° 0.3 mm 5 mps 736 mmHg 74%
16:00 +13°C° 0.3 mm 5 mps 736 mmHg 79%
17:00 +12°C° 0.3 mm 5 mps 737 mmHg 82%
18:00 +11°C° 0.3 mm 4 mps 737 mmHg 86%
19:00 +10°C° 0.3 mm 4 mps 737 mmHg 89%
20:00 +10°C° 0 mm 3 mps 737 mmHg 90%
21:00 +9°C° 0 mm 3 mps 738 mmHg 92%
22:00 +8°C° 0 mm 3 mps 738 mmHg 93%
23:00 +7°C° 0 mm 3 mps 738 mmHg 93%

19 May, Wednesday

Time Temperature Precipitation Wind Pressure Humidity
00:00 +7°C° 0 mm 3 mps 738 mmHg 93%
01:00 +7°C° 0 mm 3 mps 739 mmHg 92%
02:00 +5°C° 0 mm 3 mps 739 mmHg 93%
03:00 +5°C° 0 mm 3 mps 739 mmHg 93%
04:00 +5°C° 0 mm 3 mps 739 mmHg 94%
05:00 +7°C° 0 mm 3 mps 739 mmHg 92%
06:00 +8°C° 0 mm 3 mps 739 mmHg 90%
07:00 +9°C° 0 mm 3 mps 739 mmHg 88%
08:00 +9°C° 0.1 mm 3 mps 739 mmHg 88%
09:00 +9°C° 0.1 mm 3 mps 740 mmHg 88%
10:00 +9°C° 0.1 mm 3 mps 740 mmHg 88%
11:00 +8°C° 0.2 mm 4 mps 740 mmHg 90%
12:00 +7°C° 0.2 mm 4 mps 740 mmHg 91%
13:00 +7°C° 0.2 mm 5 mps 740 mmHg 92%
14:00 +8°C° 0 mm 5 mps 740 mmHg 89%
15:00 +10°C° 0 mm 4 mps 740 mmHg 85%
16:00 +10°C° 0 mm 4 mps 740 mmHg 81%
17:00 +10°C° 0.1 mm 4 mps 740 mmHg 83%
18:00 +10°C° 0.1 mm 3 mps 740 mmHg 85%
19:00 +9°C° 0.1 mm 3 mps 740 mmHg 87%
20:00 +8°C° 0 mm 2 mps 740 mmHg 89%
21:00 +7°C° 0 mm 2 mps 740 mmHg 91%
22:00 +6°C° 0 mm 2 mps 740 mmHg 93%
23:00 +6°C° 0 mm 2 mps 740 mmHg 93%

20 May, Thursday

Time Temperature Precipitation Wind Pressure Humidity
00:00 +6°C° 0 mm 2 mps 740 mmHg 93%
01:00 +6°C° 0 mm 2 mps 740 mmHg 94%
02:00 +6°C° 0 mm 2 mps 740 mmHg 94%
03:00 +5°C° 0 mm 2 mps 740 mmHg 94%
04:00 +5°C° 0 mm 2 mps 740 mmHg 94%
05:00 +7°C° 0 mm 3 mps 741 mmHg 90%
06:00 +8°C° 0 mm 3 mps 741 mmHg 86%
07:00 +10°C° 0 mm 4 mps 741 mmHg 83%
08:00 +11°C° 0.2 mm 4 mps 741 mmHg 79%
09:00 +12°C° 0.2 mm 5 mps 741 mmHg 76%
10:00 +12°C° 0.2 mm 5 mps 741 mmHg 73%
11:00 +13°C° 0.3 mm 5 mps 741 mmHg 71%
12:00 +13°C° 0.3 mm 5 mps 742 mmHg 70%
13:00 +13°C° 0.3 mm 5 mps 742 mmHg 68%
14:00 +13°C° 0.1 mm 5 mps 742 mmHg 66%
15:00 +14°C° 0.1 mm 5 mps 741 mmHg 63%
16:00 +14°C° 0.1 mm 5 mps 741 mmHg 61%
17:00 +13°C° 0.1 mm 4 mps 741 mmHg 66%
18:00 +11°C° 0.1 mm 3 mps 741 mmHg 72%
19:00 +10°C° 0.1 mm 3 mps 741 mmHg 78%
20:00 +9°C° 0 mm 3 mps 742 mmHg 80%
21:00 +8°C° 0 mm 3 mps 742 mmHg 82%
22:00 +7°C° 0 mm 3 mps 742 mmHg 84%
23:00 +7°C° 0 mm 3 mps 742 mmHg 85%

21 May, Friday

Time Temperature Precipitation Wind Pressure Humidity
00:00 +7°C° 0 mm 3 mps 742 mmHg 86%
01:00 +5°C° 0 mm 3 mps 742 mmHg 87%
02:00 +5°C° 0 mm 3 mps 741 mmHg 88%
03:00 +6°C° 0 mm 2 mps 741 mmHg 89%
04:00 +5°C° 0 mm 2 mps 741 mmHg 91%
05:00 +7°C° 0 mm 2 mps 741 mmHg 84%
06:00 +9°C° 0 mm 2 mps 741 mmHg 78%
07:00 +12°C° 0 mm 2 mps 741 mmHg 72%
08:00 +12°C° 0 mm 3 mps 740 mmHg 68%
09:00 +13°C° 0 mm 4 mps 740 mmHg 63%
10:00 +15°C° 0 mm 5 mps 740 mmHg 59%
11:00 +15°C° 0 mm 5 mps 739 mmHg 56%
12:00 +16°C° 0 mm 5 mps 739 mmHg 53%
13:00 +17°C° 0 mm 5 mps 738 mmHg 50%
14:00 +17°C° 0 mm 5 mps 738 mmHg 52%
15:00 +18°C° 0 mm 4 mps 737 mmHg 54%
16:00 +18°C° 0 mm 4 mps 737 mmHg 56%
17:00 +17°C° 0 mm 4 mps 736 mmHg 61%
18:00 +16°C° 0 mm 3 mps 736 mmHg 67%
19:00 +14°C° 0 mm 3 mps 735 mmHg 72%
20:00 +13°C° 0 mm 3 mps 735 mmHg 72%
21:00 +13°C° 0 mm 3 mps 735 mmHg 71%
22:00 +13°C° 0 mm 4 mps 735 mmHg 71%
23:00 +12°C° 0.1 mm 3 mps 735 mmHg 76%
Show more